Regional Weather Roundup
Issued by NWS Sioux Falls, SD

Home | Current Version | Previous Version | Graphics & Text | Print | Product List | Glossary On
Versions: 1 2 3 4 5 6 7 8 9 10 11 12 13 14 15 16 17 18 19 20 21 22 23 24 25 26 27 28 29 30 31 32 33 34 35 36 37 38 39 40 41 42 43 44 45 46 47 48 49 50
000
ASUS43 KFSD 050910
RWRFSD

WEATHER ROUNDUP FOR SE SOUTH DAKOTA/SW MINNESOTA/NW IOWA
NATIONAL WEATHER SERVICE SIOUX FALLS SD
400 AM CDT THU MAY 05 2016

NOTE: "FAIR" INDICATES FEW OR NO CLOUDS BELOW 12,000 FEET WITH NO
SIGNIFICANT WEATHER AND OR OBSTRUCTIONS TO VISIBILITY.


SDZ038>040-050-052>070-051000-
SOUTHEAST SOUTH DAKOTA

CITY           SKY/WX    TMP DP  RH WIND       PRES   REMARKS
BROOKINGS      CLEAR     44  35  70 SE6       30.01S
CHAMBERLAIN    CLEAR     51  43  75 SW5       30.02S
HURON          CLEAR     47  41  80 S5        29.99F
MADISON        FAIR      46  39  76 SW5       30.02S
MITCHELL       CLEAR     47  42  83 SE3       30.02S
SIOUX FALLS    CLOUDY    41  36  82 CALM      30.02F
WINNER         FAIR      52  38  58 SW7       30.04S
YANKTON        CLEAR     46  37  71 CALM      30.03R
$$

MNZ071-072-080-081-089-090-097-098-051000-
SOUTHWEST MINNESOTA

CITY           SKY/WX    TMP DP  RH WIND       PRES   REMARKS
FAIRMONT       CLEAR     45  32  61 CALM      30.01R
JACKSON        PTCLDY    46  32  57 CALM      30.02R
LUVERNE        CLEAR     41  34  75 CALM      30.02S
MARSHALL       CLEAR     43  35  73 SW6       30.00S
MONTEVIDEO     CLEAR     43  34  70 SW5       30.01S
PIPESTONE      PTCLDY    46  36  66 CALM      30.01S
REDWOOD FALLS  CLEAR     44  30  57 CALM      30.00S
TRACY          CLEAR     47  34  60 SW6       30.01S
WINDOM         CLEAR     39  36  87 CALM      30.02R
WORTHINGTON    PTCLDY    47  34  60 CALM      30.02S
$$

IAZ001>003-012>014-020>022-031-032-NEZ013-014-SDZ071-051000-
NORTHWEST IOWA

CITY           SKY/WX    TMP DP  RH WIND       PRES   REMARKS
CHEROKEE       CLEAR     39  39 100 CALM      30.02S
DENISON        CLEAR     41  39  93 CALM      30.01R
ESTHERVILLE    CLEAR     40  35  83 NW7       30.01S
LE MARS        CLEAR     41  39  93 CALM      30.04R
ORANGE CITY    CLEAR     52  34  50 CALM      30.02S
SHELDON        CLEAR     39  36  87 CALM      30.01R
SIOUX CITY     CLEAR     43  36  76 NW3       30.03S
SPENCER        CLEAR     38  35  89 W6        30.02S
STORM LAKE     CLEAR     50  34  53 N3        30.02S
$$

ABBREVIATIONS USED IN REMARKS
   TC - TEMPERATURE IN CELSIUS
  WCI - WIND CHILL INDEX
   HX - HEAT INDEX
  VSB - VISIBILITY





USA.gov is the U.S. government's official web portal to all federal, state and local government web resources and services.